Location: Unspecified
(0.0000°N, 0.0000°E)
Time: 23:18:37
(UTC+01:00)

Iridium 84 - Visible Passes

Search period start: 22 February 2018 00:00
Search period end: 04 March 2018 00:00
Orbit: 776 x 779 km, 86.4° (Epoch: 22 February)

Date Brightness Start Highest point End Pass type
(mag) Time Alt. Az. Time Alt. Az. Time Alt. Az.
22 Feb 8.1 19:50:43 10° NW 19:54:54 25° W 19:59:08 10° SW visible
23 Feb 6.6 06:42:59 10° SSE 06:48:03 51° E 06:53:05 10° NNE visible
24 Feb 8.1 06:10:32 10° SE 06:14:36 23° E 06:18:38 10° NE visible
25 Feb 8.7 19:52:00 10° NW 19:54:59 15° W 19:57:57 10° SW visible
26 Feb 5.7 06:42:53 10° S 06:48:07 84° E 06:53:19 10° N visible
27 Feb 7.2 06:09:52 10° SSE 06:14:40 37° E 06:19:25 10° NNE visible
28 Feb 8.5 05:37:55 10° SE 05:41:12 17° E 05:44:28 10° NE visible
01 Mar 5.6 06:43:02 10° S 06:48:10 60° W 06:53:17 10° N visible
02 Mar 6.1 06:09:35 10° S 06:14:43 61° E 06:19:50 10° N visible
03 Mar 7.6 05:36:54 10° SSE 05:41:16 27° E 05:45:36 10° NNE visible
